Regional Weather Roundup
Issued by NWS Little Rock, AR

Home | Current Version | Previous Version | Text Only | Print | Product List | Glossary On
Versions: 1 2 3 4 5 6 7 8 9 10 11 12 13 14 15 16 17 18 19 20 21 22 23 24 25 26 27 28 29 30 31 32 33 34 35 36 37 38 39 40 41 42 43 44 45 46 47 48 49 50
000
ASUS44 KLZK 092105
RWRLZK

WEATHER ROUNDUP FOR ARKANSAS
NATIONAL WEATHER SERVICE LITTLE ROCK AR
300 PM CST TUE FEB 09 2016

NOTE: "FAIR" INDICATES FEW OR NO CLOUDS BELOW 12,000 FEET WITH NO
SIGNIFICANT WEATHER AND/OR OBSTRUCTIONS TO VISIBILITY.

ARZ001-003-010-029-092200-
NORTHWEST ARKANSAS

CITY           SKY/WX    TMP DP  RH WIND       PRES   REMARKS
FAYETTEVILLE   SUNNY     39   9  29 N20G30    30.14R
FORT SMITH     SUNNY     48   6  18 NW13      30.17R
HARRISON       SUNNY     35   8  32 NW21G30   30.09R WCI  24
BENTONVILLE    SUNNY    N/A N/A N/A NW20G25   30.15R
ROGERS         SUNNY     37   6  27 NW16G28   30.13S
SILOAM SPGS    SUNNY     39   9  28 NW22G30   30.17R
HIGHFILL       SUNNY     39  10  30 NW20G29   30.15
SPRINGDALE     SUNNY     37   5  25 NW17G29   30.15R
$$

ARZ004-005-016-092200-
NORTH CENTRAL ARKANSAS

CITY           SKY/WX    TMP DP  RH WIND       PRES   REMARKS
BATESVILLE     SUNNY     39   9  28 NW15G26   30.10R
FLIPPIN        SUNNY    N/A N/A N/A NW16G31   30.07S
MTN HOME       SUNNY     35   8  32 NW10G24   30.08R WCI  27
$$

ARZ040-041-092200-
WEST CENTRAL ARKANSAS

CITY           SKY/WX    TMP DP  RH WIND       PRES   REMARKS
MENA           SUNNY     50  14  23 NW15G29   30.12R
MOUNT IDA      SUNNY     49  11  21 N20G33    30.08R
$$

ARZ009-017-025-026-028-092200-
NORTHEAST ARKANSAS

CITY           SKY/WX    TMP DP  RH WIND       PRES   REMARKS
CORNING        FAIR      34  12  40 NW20G30   30.07R WCI  22
JONESBORO      CLOUDY    34  14  43 NW18G29   30.08R WCI  23
NEWPORT        SUNNY     40  11  30 NW28      30.09R
WALNUT RIDGE   PTSUNNY   36  10  35 N25       30.09R
BLYTHEVILLE    CLOUDY    32  14  47 NW13      30.08R WCI  22
NW BLYTHEVILLE CLOUDY    32  14  47 NW12G23   30.07R WCI  23
$$

ARZ022-023-033-042-044-092200-
CENTRAL ARKANSAS

CITY           SKY/WX    TMP DP  RH WIND       PRES   REMARKS
LITTLE ROCK    MOSUNNY   50   9  19 W23G38    30.06R
N LITTLE ROCK  MOSUNNY   48  12  23 NW13G24   30.06R
JACKSONVILLE   SUNNY     48   1  14 NW20G26   30.05R
SEARCY         SUNNY     45   9  23 NW14G26   30.08R
HOT SPRINGS    SUNNY     49  11  21 NW14G28   30.09R
RUSSELLVILLE   SUNNY     47   4  17 W20G31    30.09R
CLINTON        FAIR      41   7  24 NW16G28   30.10R
$$

ARZ036-092200-
EAST ARKANSAS

CITY           SKY/WX    TMP DP  RH WIND       PRES   REMARKS
WEST MEMPHIS   SUNNY     37  17  44 N10G28    30.06R
$$

ARZ050-053-066-070-073-092200-
SOUTHWEST ARKANSAS

CITY           SKY/WX    TMP DP  RH WIND       PRES   REMARKS
ARKADELPHIA    FAIR      52  16  24 N14       30.10R
CAMDEN         SUNNY     55   9  15 NW15G24   30.09R
TEXARKANA      SUNNY     54  17  23 NW20G33   30.14R
EL DORADO      SUNNY     54  13  19 W15G30    30.10R
DE QUEEN       SUNNY     52  19  27 NW15G26   30.14R
$$

ARZ056-057-069-092200-
SOUTHEAST ARKANSAS

CITY           SKY/WX    TMP DP  RH WIND       PRES   REMARKS
PINE BLUFF     SUNNY     51  12  21 NW22G33   30.05R
STUTTGART      SUNNY     48  12  23 NW24G33   30.03R
MONTICELLO     SUNNY     53  11  18 W17G29    30.04R

$$





USA.gov is the U.S. government's official web portal to all federal, state and local government web resources and services.